User: anonymous   Login
Location: Brno
(49.2000°N, 16.6330°E)
Time: 22:39:17
(UTC+02:00)
Language:

Cosmos 1459 Rocket - Orbit

View from above orbital plane
View from above orbital plane
View from above satellite
View from above satellite

Ground track
Ground track

The orbit data is extracted from the following two-line orbital elements,

1 14059U 83042B   18116.30495671  .00000041  00000-0  25019-4 0  9994
2 14059  82.9742 189.5179 0044141 107.1417 253.4581 13.78622964758891
Epoch (UTC): 26 April 2018 07:19:08
Eccentricity: 0.0044141
inclination: 82.9742°
perigee height: 936 km
apogee height: 1001 km
right ascension of ascending node: 189.5179°
argument of perigee: 107.1417°
revolutions per day: 13.78622964
mean anomaly at epoch: 253.4581°
orbit number at epoch: 75889

The dashed part of the orbit path shows where the satellite is in the earth's shadow,  

DLR